Showing default

IRIDE-MS2-HEO-7, 68981

Orbit data source: Space-Track

IRIDE-MS2-HEO-7, 68981 is an Italian payload satellite in SSO that was launched on Sun, 03 May 2026 UTC via an FALCON 9 launch vehicle from the Air Force Western Test Range (AFWTR). Payload-class satellites include a variety of spacecraft equipped with specific instruments for various scientific and technological missions. These include communications satellites like Starlink; space stations such as the ISS; scientific satellites like the Hubble; Earth observation satellites from companies like Planet Labs, Umbra, and HawkEye 360; GPS; miniature CubeSats for education and research; and military/defense satellites.

Loading next visibility...
Identifier
68981, 2026-100B
Orbit
SSO
Country
Flag of ITIT
Related business
Manufacturer
ArgoTec
Mission
Operational spacecraft
Bus & Motor
HAWK, Unknown motor
Mass
65 kg wet, 65 kg dry
Launch date (UTC)
2026-05-03 (1 month ago)
Launch vehicle
FALCON 9
Launch site
Air Force Western Test Range (AFWTR)
Object type
Payload
Rocket body
Debris
Shape & HBR
Unknown shape, 14.5 m
Radar Cross Section
Medium (>0.1 m² and <1 m²)

Expand to show TLE details & history
Last TLE update: 11 hours ago

TLE from 11 hours ago
0 IRIDE-MS2-HEO-7
1 68981U 26100B   26168.63112420  .00001050  00000-0  11173-3 0  9995
2 68981  97.7361  66.0330 0006010 133.4002 226.7718 14.91006075  6760
Epoch: 2026-06-17T15:08Z
TLE epoch observation values (Epoch: 2026-06-17T15:08:49.130Z)
Latitude
-0.00002°
Longitude
-67.05774°
Altitude
600.711 km
Speed
7.558 km/s
True Right ascension
04h 24m 07s
True Declination
0° 00' 00"
Sunlit
Object was in daylight at epoch
Visualization orbit readout
Latitude
Unknown
Longitude
Unknown
Altitude
Unknown
Speed
Unknown
Apparent Right ascension
Unknown
Apparent Declination
Unknown
Sunlit
N/A
Visualization observer readout
Local Sidereal Time
12:54:09
Azimuth
Unknown
Elevation
Unknown
Doppler factor
Unknown
Orbital elements
Apogee altitude
596.005 km
Perigee altitude
587.627 km
Semi-major axis
6,969.953 km
Eccentricity
0.0006
Inclination
97.7361°
RAAN
66.033°
Arg. of periapsis
133.4002°
True anomaly
226.72165°
Mean anomaly
226.7718°
Eccentric anomaly
226.74672°
Mean motion
3.72991 °/min
Orbital period
96.52 mins
BSTAR
0.00011173
Loading maneuver chart data...
Computing Atmospheric mass density...
Loading historical data...
Loading historical data...
Loading historical data...
Loading historical data...
Loading historical data...
Loading historical data...
Loading historical data...

Documentation

Showing up to 5 results
|